Location: Observatorio del Centro Ecologico de Sonora
(29.0667°N, 110.9333°W)
Time: 08:26:01
(UTC-07:00)

ISS - Visible Passes

Search period start: 30 January 2015 00:00
Search period end: 09 February 2015 00:00
Orbit: 400 x 408 km, 51.6° (Epoch: 30 January)

Date Brightness Start Highest point End Pass type
(mag) Time Alt. Az. Time Alt. Az. Time Alt. Az.
30 Jan -2.8 05:48:25 45° SSW 05:48:25 45° SSW 05:51:16 10° SSE visible
31 Jan 0.0 04:58:55 12° SE 04:58:55 12° SE 04:59:08 10° SE visible
31 Jan -0.7 19:51:29 10° SSW 19:52:09 15° SSW 19:52:09 15° SSW visible
01 Feb -1.7 19:00:04 10° S 19:02:22 18° SE 19:02:42 18° ESE visible
02 Feb -2.4 19:43:06 10° WSW 19:45:51 48° WNW 19:45:51 48° WNW visible
03 Feb -3.3 18:50:45 10° SSW 18:53:56 60° SE 18:56:13 18° NE visible
04 Feb -1.1 19:35:35 10° W 19:38:04 20° NW 19:39:07 17° NNW visible
05 Feb -2.2 18:42:26 10° WSW 18:45:31 40° NW 18:48:36 10° NNE visible
07 Feb -0.7 18:34:59 10° WNW 18:37:08 16° NW 18:39:13 10° N visible
